PSLV R/B

Satellite information

Favourite Embed

Satellite Type and Status

ROCKET BODYIN ORBIT

Key statistics

Satellite PSLV R/B at a glance.

Uptime

5077

Days in orbit

Revolutions

≈ 14.2

Per day

Orbit

LEO

Low Earth Orbit

Inclination

19.8

Latest

Satellite identification and parameters

Extended collection of information and parameters for PSLV R/B.

Object identification

Identified? True

Debris? False

Object name: PSLV R/B

International designator: 2011-058E

Object number (NORAD): 37842

Object ID (CCSDS): 37842

Country: INDIA (IND)

Current information (Y/N): Y

RCS size: LARGE

Orbital parameters

Period: 101.284 minutes

Inclination: 19.7924 deg

SMA: 7197.58 km

Apoapsis: 862.141 km

Periapsis: 776.75 km

RAAN: 138.4151 deg

Eccentricy: 0.00593193

Argument of periapsis: 32.7133 deg

Mean anomaly: 327.6926 deg

Mean motion: 14.21749155 rev/day

Mean motion (dot): 0.0000054 rev/day2

B* drag term: 0.00011659814 1/REarth

Two-line elements (TLE)

Creation date: Sept. 4, 2025, 10:13 a.m.

Reference frame: TEME

Reference center: EARTH

Epoch: Sept. 4, 2025, 12:18 a.m. UTC

TLE line 0: 0 PSLV R/B

TLE line 1: 1 37842U 11058E 25247.01293869 .00000540 00000-0 11660-3 0 9993

TLE line 2: 2 37842 19.7924 138.4151 0059319 32.7133 327.6926 14.21749155722776

Live tracking on map

Real-time ground track for satellite PSLV R/B.

In-orbit conjunctions

A list of the most updated potential collisions computed for object PSLV R/B.

Target Orbit TCA Probability of collision Miss distance Type
FENGYUN 1C DEB SSO 2025-08-10 09:06:24 0.0001396919 126.0 (m) DEBRIS
CZ-6A DEB SSO 2025-02-06 10:09:24 0.0002300679 730.0 (m) DEBRIS
FENGYUN 1C DEB SSO 2024-11-12 23:51:09 0.02457122 38.0 (m) DEBRIS
COSMOS 2251 DEB LEO 2024-07-28 05:53:47 0.0001799246 218.0 (m) DEBRIS

Associated space launch

PSLV R/B was lifted into orbit during the mission ‘PSLV-CA | Megha-Tropiques’, on board a PSLV space rocket.

The launch took place on Oct. 12, 2011, 5:31 a.m. from Satish Dhawan Space Centre First Launch Pad.

For more information about the launch, click the button.

Launch to space PSLV-CA | Megha-Tropiques
PSLV-CA | Megha-Tropiques

Agency: N/A

Status: Launch Successful

Launch date: Oct. 12, 2011, 5:31 a.m. UTC

Rocket: PSLV

Launch pad: Satish Dhawan Space Centre First Launch Pad

Location: Satish Dhawan Space Centre, India

...

Latest news about this satellite

There are no fresh news available about this satellite. Check back as we update our databases every day.


Newsletter sign-up

Weekly statistics, charts and insights to help you stay on top of the space industry.